Voltar ao catálogo

STARLINK-11134

AtivoComunicaçõesVLEO
NORAD 59956·PAYLOAD·🇺🇸 United States

Lançado Jun 5, 2024 de Cape Canaveral Space Force Station

Loading…

Próximas Passagens (próximas 24 horas)

TLE

AtualizadoSource: CelesTrak SupGP

Época: Sep 15, 2026, 02:46 UTC

1 59956C 24107M   26258.11576389 -.00106540  00000+0 -87747-3 0  2582
2 59956  53.1573  37.2051 0000979  96.0920 167.6792 15.69767681    14

Acompanhe STARLINK-11134 em tempo real com AllMySat

Download on the App Store